Starlink 32220

operational
NORAD ID: 60370 Int'l Des: 2024-138 Owner: SPXS Country: US Constellation: starlink
LEOCIRCULAR

About Starlink 32220

Description loading...

Live Position

Loading 3D Globe...

Upcoming Passes

Altitude History

Altitude vs Time

uPlot chart will show altitude changes over time

Two-Line Element Set

1 60370U 24138R 25260.65734055 .00003073 00000-0 11574-3 0 9998
2 60370 53.1632 33.4610 0001443 96.6652 263.4513 15.30224671 64130
Epoch: Sep 17, 2025 • Age: 23 hours

Current Status

Altitude 488.5 km
Velocity 7.62 km/s
Sub-Earth Point -38.86°S, 27.21°E
Launch Date Aug 4, 2024
Age 1.1 years
Type internet

Technical Details

Classification Payload
Mass 730.00 kg
Dry Mass 700.00 kg
Total Mass 730.00 kg
Length 0.30 m
Diameter 4.10 m
Span 29.00 m
Shape Box + pan
Manufacturer SPXS
Bus Type Starlink V2M
Phase Status In Orbit
Owner/State SPXS/US

Large Constellations

Loading constellations...